Terug naar catalogus

JIAOTONG VDES B

ActiefWetenschapPO
NORAD 66914·PAYLOAD·🇨🇳 China
Deze satellietnaam is nog niet bevestigd door officiële bronnen.

Gelanceerd Dec 5, 2025 vanaf Jiuquan Satellite Launch Center

Loading…

Volgende Passages (komende 24 uur)

TLE

VersSource: Space-Track

Epoch: Sep 14, 2026, 06:19 UTC

1 66914U 25284B   26257.26372238  .00000105  00000-0  68409-4 0  9999
2 66914  80.3995 196.1877 0011951   1.8838 358.2366 13.97341149 39924

Volg JIAOTONG VDES B in realtime met AllMySat

Download on the App Store